Location: Amsterdam
(30.7274°N, 84.4357°W)
Time: 07:54:22
(UTC+00:00)

Tiros 1 despin weight - Pass Details

Date: 25 February 2026
Orbit: 556 x 593 km, 48.2° (Epoch: 12 March)

Event Time Altitude Azimuth Distance (km) Brightness Sun altitude
Rises 22:12:30 0° 324° (NW) 2,735 ? 15.9°
Reaches altitude 10° 22:15:50 10° 352° (N) 1,835 ? 15.3°
Maximum altitude 22:17:55 13° 22° (NNE) 1,622 ? 14.8°
Drops below altitude 10° 22:20:01 10° 52° (NE) 1,832 ? 14.4°
Sets 22:23:20 0° 80° (E) 2,727 ? 13.8°
